Location: Vienna
(48.2082°N, 16.3738°E)
Time: 00:54:42
(UTC+02:00)

ISS - Pass Details

Date: 22 July 2018
Orbit: 402 x 408 km, 51.6° (Epoch: 16 July)

Event Time Altitude Azimuth Distance (km) Brightness Sun altitude
Rises 00:30:16 0° 278° (W) 2,324 0.2 -21.1°
Reaches altitude 10° 00:32:24 10° 286° (WNW) 1,465 -0.7 -21.2°
Maximum altitude 00:35:34 43° 360° (N) 582 -2.6 -21.2°
Drops below altitude 10° 00:38:44 10° 73° (ENE) 1,468 -0.9 -21.3°
Sets 00:40:53 0° 81° (E) 2,329 0.1 -21.3°
